Year,Month,Day,Hour,Minute,Value (Times are PST for barometer in hPa)
2020,11,13,00,00,993.50
2020,11,13,00,01,993.47
2020,11,13,00,02,993.47
2020,11,13,00,03,993.47
2020,11,13,00,04,993.47
2020,11,13,00,05,993.47
2020,11,13,00,06,993.47
2020,11,13,00,07,993.47
2020,11,13,00,08,993.47
2020,11,13,00,09,993.47
2020,11,13,00,10,993.47
2020,11,13,00,11,993.47
2020,11,13,00,12,993.47
2020,11,13,00,13,993.47
2020,11,13,00,14,993.47
2020,11,13,00,15,992.89
2020,11,13,00,16,992.86
2020,11,13,00,17,992.86
2020,11,13,00,18,992.86
2020,11,13,00,19,992.86
2020,11,13,00,20,992.86
2020,11,13,00,21,992.86
2020,11,13,00,22,992.86
2020,11,13,00,23,992.86
2020,11,13,00,24,992.86
2020,11,13,00,25,992.86
2020,11,13,00,26,992.86
2020,11,13,00,27,992.86
2020,11,13,00,28,992.86
2020,11,13,00,29,992.86
2020,11,13,00,30,992.21
2020,11,13,00,31,992.18
2020,11,13,00,32,992.18
2020,11,13,00,33,992.18
2020,11,13,00,34,992.18
2020,11,13,00,35,992.18
2020,11,13,00,36,992.18
2020,11,13,00,37,992.18
2020,11,13,00,38,992.18
2020,11,13,00,39,992.18
2020,11,13,00,40,992.18
2020,11,13,00,41,992.18
2020,11,13,00,42,992.18
2020,11,13,00,43,992.18
2020,11,13,00,44,992.18
2020,11,13,00,45,991.49
2020,11,13,00,46,991.47
2020,11,13,00,47,991.47
2020,11,13,00,48,991.47
2020,11,13,00,49,991.47
2020,11,13,00,50,991.47
2020,11,13,00,51,991.47
2020,11,13,00,52,991.47
2020,11,13,00,53,991.47
2020,11,13,00,54,991.47
2020,11,13,00,55,991.47
2020,11,13,00,56,991.47
2020,11,13,00,57,991.47
2020,11,13,00,58,991.47
2020,11,13,00,59,991.47
2020,11,13,01,00,990.82
2020,11,13,01,01,990.82
2020,11,13,01,02,990.82
2020,11,13,01,03,990.82
2020,11,13,01,04,990.82
2020,11,13,01,05,990.82
2020,11,13,01,06,990.82
2020,11,13,01,07,990.82
2020,11,13,01,08,990.82
2020,11,13,01,09,990.82
2020,11,13,01,10,990.82
2020,11,13,01,11,990.82
2020,11,13,01,12,990.82
2020,11,13,01,13,990.82
2020,11,13,01,14,990.82
2020,11,13,01,15,990.05
2020,11,13,01,16,990.01
2020,11,13,01,17,990.01
2020,11,13,01,18,990.01
2020,11,13,01,19,990.01
2020,11,13,01,20,990.01
2020,11,13,01,21,990.01
2020,11,13,01,22,990.01
2020,11,13,01,23,990.01
2020,11,13,01,24,990.01
2020,11,13,01,25,990.01
2020,11,13,01,26,990.01
2020,11,13,01,27,990.01
2020,11,13,01,28,990.01
2020,11,13,01,29,990.01
2020,11,13,01,30,989.30
2020,11,13,01,31,989.30
2020,11,13,01,32,989.30
2020,11,13,01,33,989.30
2020,11,13,01,34,989.30
2020,11,13,01,35,989.30
2020,11,13,01,36,989.30
2020,11,13,01,37,989.30
2020,11,13,01,38,989.30
2020,11,13,01,39,989.30
2020,11,13,01,40,989.30
2020,11,13,01,41,989.30
2020,11,13,01,42,989.30
2020,11,13,01,43,989.30
2020,11,13,01,44,989.30
2020,11,13,01,45,988.69
2020,11,13,01,46,988.69
2020,11,13,01,47,988.69
2020,11,13,01,48,988.69
2020,11,13,01,49,988.69
2020,11,13,01,50,988.69
2020,11,13,01,51,988.69
2020,11,13,01,52,988.69
2020,11,13,01,53,988.69
2020,11,13,01,54,988.69
2020,11,13,01,55,988.69
2020,11,13,01,56,988.69
2020,11,13,01,57,988.69
2020,11,13,01,58,988.69
2020,11,13,01,59,988.69
2020,11,13,02,00,988.11
2020,11,13,02,01,988.11
2020,11,13,02,02,988.11
2020,11,13,02,03,988.11
2020,11,13,02,04,988.11
2020,11,13,02,05,988.11
2020,11,13,02,06,988.11
2020,11,13,02,07,988.11
2020,11,13,02,08,988.11
2020,11,13,02,09,988.11
2020,11,13,02,10,988.11
2020,11,13,02,11,988.11
2020,11,13,02,12,988.11
2020,11,13,02,13,988.11
2020,11,13,02,14,988.11
2020,11,13,02,15,987.41
2020,11,13,02,16,987.37
2020,11,13,02,17,987.37
2020,11,13,02,18,987.37
2020,11,13,02,19,987.37
2020,11,13,02,20,987.37
2020,11,13,02,21,987.37
2020,11,13,02,22,987.37
2020,11,13,02,23,987.37
2020,11,13,02,24,987.37
2020,11,13,02,25,987.37
2020,11,13,02,26,987.37
2020,11,13,02,27,987.37
2020,11,13,02,28,987.37
2020,11,13,02,29,987.37
2020,11,13,02,30,987.14
2020,11,13,02,31,987.13
2020,11,13,02,32,987.13
2020,11,13,02,33,987.13
2020,11,13,02,34,987.13
2020,11,13,02,35,987.13
2020,11,13,02,36,987.13
2020,11,13,02,37,987.13
2020,11,13,02,38,987.13
2020,11,13,02,39,987.13
2020,11,13,02,40,987.13
2020,11,13,02,41,987.13
2020,11,13,02,42,987.13
2020,11,13,02,43,987.13
2020,11,13,02,44,987.13
2020,11,13,02,45,986.56
2020,11,13,02,46,986.52
2020,11,13,02,47,986.52
2020,11,13,02,48,986.52
2020,11,13,02,49,986.52
2020,11,13,02,50,986.52
2020,11,13,02,51,986.52
2020,11,13,02,52,986.52
2020,11,13,02,53,986.52
2020,11,13,02,54,986.52
2020,11,13,02,55,986.52
2020,11,13,02,56,986.52
2020,11,13,02,57,986.52
2020,11,13,02,58,986.52
2020,11,13,02,59,986.52
2020,11,13,03,00,985.94
2020,11,13,03,01,985.91
2020,11,13,03,02,985.91
2020,11,13,03,03,985.91
2020,11,13,03,04,985.91
2020,11,13,03,05,985.91
2020,11,13,03,06,985.91
2020,11,13,03,07,985.91
2020,11,13,03,08,985.91
2020,11,13,03,09,985.91
2020,11,13,03,10,985.91
2020,11,13,03,11,985.91
2020,11,13,03,12,985.91
2020,11,13,03,13,985.91
2020,11,13,03,14,985.91
2020,11,13,03,15,985.49
2020,11,13,03,16,985.47
2020,11,13,03,17,985.47
2020,11,13,03,18,985.47
2020,11,13,03,19,985.47
2020,11,13,03,20,985.47
2020,11,13,03,21,985.47
2020,11,13,03,22,985.47
2020,11,13,03,23,985.47
2020,11,13,03,24,985.47
2020,11,13,03,25,985.47
2020,11,13,03,26,985.47
2020,11,13,03,27,985.47
2020,11,13,03,28,985.47
2020,11,13,03,29,985.47
2020,11,13,03,30,985.00
2020,11,13,03,31,984.97
2020,11,13,03,32,984.97
2020,11,13,03,33,984.97
2020,11,13,03,34,984.97
2020,11,13,03,35,984.97
2020,11,13,03,36,984.97
2020,11,13,03,37,984.97
2020,11,13,03,38,984.97
2020,11,13,03,39,984.97
2020,11,13,03,40,984.97
2020,11,13,03,41,984.97
2020,11,13,03,42,984.97
2020,11,13,03,43,984.97
2020,11,13,03,44,984.97
2020,11,13,03,45,984.46
2020,11,13,03,46,984.46
2020,11,13,03,47,984.46
2020,11,13,03,48,984.46
2020,11,13,03,49,984.46
2020,11,13,03,50,984.46
2020,11,13,03,51,984.46
2020,11,13,03,52,984.46
2020,11,13,03,53,984.46
2020,11,13,03,54,984.46
2020,11,13,03,55,984.46
2020,11,13,03,56,984.46
2020,11,13,03,57,984.46
2020,11,13,03,58,984.46
2020,11,13,03,59,984.46
2020,11,13,04,00,983.95
2020,11,13,04,01,983.92
2020,11,13,04,02,983.92
2020,11,13,04,03,983.92
2020,11,13,04,04,983.92
2020,11,13,04,05,983.92
2020,11,13,04,06,983.92
2020,11,13,04,07,983.92
2020,11,13,04,08,983.92
2020,11,13,04,09,983.92
2020,11,13,04,10,983.92
2020,11,13,04,11,983.92
2020,11,13,04,12,983.92
2020,11,13,04,13,983.92
2020,11,13,04,14,983.92
2020,11,13,04,15,983.50
2020,11,13,04,16,983.48
2020,11,13,04,17,983.48
2020,11,13,04,18,983.48
2020,11,13,04,19,983.48
2020,11,13,04,20,983.48
2020,11,13,04,21,983.48
2020,11,13,04,22,983.48
2020,11,13,04,23,983.48
2020,11,13,04,24,983.48
2020,11,13,04,25,983.48
2020,11,13,04,26,983.48
2020,11,13,04,27,983.48
2020,11,13,04,28,983.48
2020,11,13,04,29,983.48
2020,11,13,04,30,983.48
2020,11,13,04,31,983.48
2020,11,13,04,32,983.48
2020,11,13,04,33,983.48
2020,11,13,04,34,983.48
2020,11,13,04,35,983.48
2020,11,13,04,36,983.48
2020,11,13,04,37,983.48
2020,11,13,04,38,983.48
2020,11,13,04,39,983.48
2020,11,13,04,40,983.48
2020,11,13,04,41,983.48
2020,11,13,04,42,983.48
2020,11,13,04,43,983.48
2020,11,13,04,44,983.48
2020,11,13,04,45,983.41
2020,11,13,04,46,983.41
2020,11,13,04,47,983.41
2020,11,13,04,48,983.41
2020,11,13,04,49,983.41
2020,11,13,04,50,983.41
2020,11,13,04,51,983.41
2020,11,13,04,52,983.41
2020,11,13,04,53,983.41
2020,11,13,04,54,983.41
2020,11,13,04,55,983.41
2020,11,13,04,56,983.41
2020,11,13,04,57,983.41
2020,11,13,04,58,983.41
2020,11,13,04,59,983.41
2020,11,13,05,00,983.44
2020,11,13,05,01,983.44
2020,11,13,05,02,983.44
2020,11,13,05,03,983.44
2020,11,13,05,04,983.44
2020,11,13,05,05,983.44
2020,11,13,05,06,983.44
2020,11,13,05,07,983.44
2020,11,13,05,08,983.44
2020,11,13,05,09,983.44
2020,11,13,05,10,983.44
2020,11,13,05,11,983.44
2020,11,13,05,12,983.44
2020,11,13,05,13,983.44
2020,11,13,05,14,983.44
2020,11,13,05,15,983.63
2020,11,13,05,16,983.64
2020,11,13,05,17,983.64
2020,11,13,05,18,983.64
2020,11,13,05,19,983.64
2020,11,13,05,20,983.64
2020,11,13,05,21,983.64
2020,11,13,05,22,983.64
2020,11,13,05,23,983.64
2020,11,13,05,24,983.64
2020,11,13,05,25,983.64
2020,11,13,05,26,983.64
2020,11,13,05,27,983.64
2020,11,13,05,28,983.64
2020,11,13,05,29,983.64
2020,11,13,05,30,983.45
2020,11,13,05,31,983.44
2020,11,13,05,32,983.44
2020,11,13,05,33,983.44
2020,11,13,05,34,983.44
2020,11,13,05,35,983.44
2020,11,13,05,36,983.44
2020,11,13,05,37,983.44
2020,11,13,05,38,983.44
2020,11,13,05,39,983.44
2020,11,13,05,40,983.44
2020,11,13,05,41,983.44
2020,11,13,05,42,983.44
2020,11,13,05,43,983.44
2020,11,13,05,44,983.44
2020,11,13,05,45,982.48
2020,11,13,05,46,982.43
2020,11,13,05,47,982.43
2020,11,13,05,48,982.43
2020,11,13,05,49,982.43
2020,11,13,05,50,982.43
2020,11,13,05,51,982.43
2020,11,13,05,52,982.43
2020,11,13,05,53,982.43
2020,11,13,05,54,982.43
2020,11,13,05,55,982.43
2020,11,13,05,56,982.43
2020,11,13,05,57,982.43
2020,11,13,05,58,982.43
2020,11,13,05,59,982.43
2020,11,13,06,00,982.74
2020,11,13,06,01,982.76
2020,11,13,06,02,982.76
2020,11,13,06,03,982.76
2020,11,13,06,04,982.76
2020,11,13,06,05,982.76
2020,11,13,06,06,982.76
2020,11,13,06,07,982.76
2020,11,13,06,08,982.76
2020,11,13,06,09,982.76
2020,11,13,06,10,982.76
2020,11,13,06,11,982.76
2020,11,13,06,12,982.76
2020,11,13,06,13,982.76
2020,11,13,06,14,982.76
2020,11,13,06,15,982.89
2020,11,13,06,16,982.90
2020,11,13,06,17,982.90
2020,11,13,06,18,982.90
2020,11,13,06,19,982.90
2020,11,13,06,20,982.90
2020,11,13,06,21,982.90
2020,11,13,06,22,982.90
2020,11,13,06,23,982.90
2020,11,13,06,24,982.90
2020,11,13,06,25,982.90
2020,11,13,06,26,982.90
2020,11,13,06,27,982.90
2020,11,13,06,28,982.90
2020,11,13,06,29,982.90
2020,11,13,06,30,982.90
2020,11,13,06,31,982.90
2020,11,13,06,32,982.90
2020,11,13,06,33,982.90
2020,11,13,06,34,982.90
2020,11,13,06,35,982.90
2020,11,13,06,36,982.90
2020,11,13,06,37,982.90
2020,11,13,06,38,982.90
2020,11,13,06,39,982.90
2020,11,13,06,40,982.90
2020,11,13,06,41,982.90
2020,11,13,06,42,982.90
2020,11,13,06,43,982.90
2020,11,13,06,44,982.90
2020,11,13,06,45,983.03
2020,11,13,06,46,983.04
2020,11,13,06,47,983.04
2020,11,13,06,48,983.04
2020,11,13,06,49,983.04
2020,11,13,06,50,983.04
2020,11,13,06,51,983.04
2020,11,13,06,52,983.04
2020,11,13,06,53,983.04
2020,11,13,06,54,983.04
2020,11,13,06,55,983.04
2020,11,13,06,56,983.04
2020,11,13,06,57,983.04
2020,11,13,06,58,983.04
2020,11,13,06,59,983.04
2020,11,13,07,00,982.97
2020,11,13,07,01,982.97
2020,11,13,07,02,982.97
2020,11,13,07,03,982.97
2020,11,13,07,04,982.97
2020,11,13,07,05,982.97
2020,11,13,07,06,982.97
2020,11,13,07,07,982.97
2020,11,13,07,08,982.97
2020,11,13,07,09,982.97
2020,11,13,07,10,982.97
2020,11,13,07,11,982.97
2020,11,13,07,12,982.97
2020,11,13,07,13,982.97
2020,11,13,07,14,982.97
2020,11,13,07,15,983.16
2020,11,13,07,16,983.17
2020,11,13,07,17,983.17
2020,11,13,07,18,983.17
2020,11,13,07,19,983.17
2020,11,13,07,20,983.17
2020,11,13,07,21,983.17
2020,11,13,07,22,983.17
2020,11,13,07,23,983.17
2020,11,13,07,24,983.17
2020,11,13,07,25,983.17
2020,11,13,07,26,983.17
2020,11,13,07,27,983.17
2020,11,13,07,28,983.17
2020,11,13,07,29,983.17
2020,11,13,07,30,983.45
2020,11,13,07,31,983.48
2020,11,13,07,32,983.48
2020,11,13,07,33,983.48
2020,11,13,07,34,983.48
2020,11,13,07,35,983.48
2020,11,13,07,36,983.48
2020,11,13,07,37,983.48
2020,11,13,07,38,983.48
2020,11,13,07,39,983.48
2020,11,13,07,40,983.48
2020,11,13,07,41,983.48
2020,11,13,07,42,983.48
2020,11,13,07,43,983.48
2020,11,13,07,44,983.48
2020,11,13,07,45,983.84
2020,11,13,07,46,983.88
2020,11,13,07,47,983.88
2020,11,13,07,48,983.88
2020,11,13,07,49,983.88
2020,11,13,07,50,983.88
2020,11,13,07,51,983.88
2020,11,13,07,52,983.88
2020,11,13,07,53,983.88
2020,11,13,07,54,983.88
2020,11,13,07,55,983.88
2020,11,13,07,56,983.88
2020,11,13,07,57,983.88
2020,11,13,07,58,983.88
2020,11,13,07,59,983.88
2020,11,13,08,00,983.95
2020,11,13,08,01,983.95
2020,11,13,08,02,983.95
2020,11,13,08,03,983.95
2020,11,13,08,04,983.95
2020,11,13,08,05,983.95
2020,11,13,08,06,983.95
2020,11,13,08,07,983.95
2020,11,13,08,08,983.95
2020,11,13,08,09,983.95
2020,11,13,08,10,983.95
2020,11,13,08,11,983.95
2020,11,13,08,12,983.95
2020,11,13,08,13,983.95
2020,11,13,08,14,983.95
2020,11,13,08,15,983.89
2020,11,13,08,16,983.88
2020,11,13,08,17,983.88
2020,11,13,08,18,983.88
2020,11,13,08,19,983.88
2020,11,13,08,20,983.88
2020,11,13,08,21,983.88
2020,11,13,08,22,983.88
2020,11,13,08,23,983.88
2020,11,13,08,24,983.88
2020,11,13,08,25,983.88
2020,11,13,08,26,983.88
2020,11,13,08,27,983.88
2020,11,13,08,28,983.88
2020,11,13,08,29,983.88
2020,11,13,08,30,983.97
2020,11,13,08,31,983.98
2020,11,13,08,32,983.98
2020,11,13,08,33,983.98
2020,11,13,08,34,983.98
2020,11,13,08,35,983.98
2020,11,13,08,36,983.98
2020,11,13,08,37,983.98
2020,11,13,08,38,983.98
2020,11,13,08,39,983.98
2020,11,13,08,40,983.98
2020,11,13,08,41,983.98
2020,11,13,08,42,983.98
2020,11,13,08,43,983.98
2020,11,13,08,44,983.98
2020,11,13,08,45,984.07
2020,11,13,08,46,984.08
2020,11,13,08,47,984.08
2020,11,13,08,48,984.08
2020,11,13,08,49,984.08
2020,11,13,08,50,984.08
2020,11,13,08,51,984.08
2020,11,13,08,52,984.08
2020,11,13,08,53,984.08
2020,11,13,08,54,984.08
2020,11,13,08,55,984.08
2020,11,13,08,56,984.08
2020,11,13,08,57,984.08
2020,11,13,08,58,984.08
2020,11,13,08,59,984.08
2020,11,13,09,00,984.14
2020,11,13,09,01,984.15
2020,11,13,09,02,984.15
2020,11,13,09,03,984.15
2020,11,13,09,04,984.15
2020,11,13,09,05,984.15
2020,11,13,09,06,984.15
2020,11,13,09,07,984.15
2020,11,13,09,08,984.15
2020,11,13,09,09,984.15
2020,11,13,09,10,984.15
2020,11,13,09,11,984.15
2020,11,13,09,12,984.15
2020,11,13,09,13,984.15
2020,11,13,09,14,984.15
2020,11,13,09,15,984.19
2020,11,13,09,16,984.19
2020,11,13,09,17,984.19
2020,11,13,09,18,984.19
2020,11,13,09,19,984.19
2020,11,13,09,20,984.19
2020,11,13,09,21,984.19
2020,11,13,09,22,984.19
2020,11,13,09,23,984.19
2020,11,13,09,24,984.19
2020,11,13,09,25,984.19
2020,11,13,09,26,984.19
2020,11,13,09,27,984.19
2020,11,13,09,28,984.19
2020,11,13,09,29,984.19
2020,11,13,09,30,984.43
2020,11,13,09,31,984.46
2020,11,13,09,32,984.46
2020,11,13,09,33,984.46
2020,11,13,09,34,984.46
2020,11,13,09,35,984.46
2020,11,13,09,36,984.46
2020,11,13,09,37,984.46
2020,11,13,09,38,984.46
2020,11,13,09,39,984.46
2020,11,13,09,40,984.46
2020,11,13,09,41,984.46
2020,11,13,09,42,984.46
2020,11,13,09,43,984.46
2020,11,13,09,44,984.46
2020,11,13,09,45,984.55
2020,11,13,09,46,984.56
2020,11,13,09,47,984.56
2020,11,13,09,48,984.56
2020,11,13,09,49,984.56
2020,11,13,09,50,984.56
2020,11,13,09,51,984.56
2020,11,13,09,52,984.56
2020,11,13,09,53,984.56
2020,11,13,09,54,984.56
2020,11,13,09,55,984.56
2020,11,13,09,56,984.56
2020,11,13,09,57,984.56
2020,11,13,09,58,984.56
2020,11,13,09,59,984.56
2020,11,13,10,00,984.98
2020,11,13,10,01,985.00
2020,11,13,10,02,985.00
2020,11,13,10,03,985.00
2020,11,13,10,04,985.00
2020,11,13,10,05,985.00
2020,11,13,10,06,985.00
2020,11,13,10,07,985.00
2020,11,13,10,08,985.00
2020,11,13,10,09,985.00
2020,11,13,10,10,985.00
2020,11,13,10,11,985.00
2020,11,13,10,12,985.00
2020,11,13,10,13,985.00
2020,11,13,10,14,985.00
2020,11,13,10,15,985.28
2020,11,13,10,16,985.30
2020,11,13,10,17,985.30
2020,11,13,10,18,985.30
2020,11,13,10,19,985.30
2020,11,13,10,20,985.30
2020,11,13,10,21,985.30
2020,11,13,10,22,985.30
2020,11,13,10,23,985.30
2020,11,13,10,24,985.30
2020,11,13,10,25,985.30
2020,11,13,10,26,985.30
2020,11,13,10,27,985.30
2020,11,13,10,28,985.30
2020,11,13,10,29,985.30
2020,11,13,10,30,985.89
2020,11,13,10,31,985.95
2020,11,13,10,32,985.95
2020,11,13,10,33,985.95
2020,11,13,10,34,985.95
2020,11,13,10,35,985.95
2020,11,13,10,36,985.95
2020,11,13,10,37,985.95
2020,11,13,10,38,985.95
2020,11,13,10,39,985.95
2020,11,13,10,40,985.95
2020,11,13,10,41,985.95
2020,11,13,10,42,985.95
2020,11,13,10,43,985.95
2020,11,13,10,44,985.95
2020,11,13,10,45,986.56
2020,11,13,10,46,986.59
2020,11,13,10,47,986.59
2020,11,13,10,48,986.59
2020,11,13,10,49,986.59
2020,11,13,10,50,986.59
2020,11,13,10,51,986.59
2020,11,13,10,52,986.59
2020,11,13,10,53,986.59
2020,11,13,10,54,986.59
2020,11,13,10,55,986.59
2020,11,13,10,56,986.59
2020,11,13,10,57,986.59
2020,11,13,10,58,986.59
2020,11,13,10,59,986.59
2020,11,13,11,00,987.14
2020,11,13,11,01,987.17
2020,11,13,11,02,987.17
2020,11,13,11,03,987.17
2020,11,13,11,04,987.17
2020,11,13,11,05,987.17
2020,11,13,11,06,987.17
2020,11,13,11,07,987.17
2020,11,13,11,08,987.17
2020,11,13,11,09,987.17
2020,11,13,11,10,987.17
2020,11,13,11,11,987.17
2020,11,13,11,12,987.17
2020,11,13,11,13,987.17
2020,11,13,11,14,987.17
2020,11,13,11,15,987.58
2020,11,13,11,16,987.61
2020,11,13,11,17,987.61
2020,11,13,11,18,987.61
2020,11,13,11,19,987.61
2020,11,13,11,20,987.61
2020,11,13,11,21,987.61
2020,11,13,11,22,987.61
2020,11,13,11,23,987.61
2020,11,13,11,24,987.61
2020,11,13,11,25,987.61
2020,11,13,11,26,987.61
2020,11,13,11,27,987.61
2020,11,13,11,28,987.61
2020,11,13,11,29,987.61
2020,11,13,11,30,988.01
2020,11,13,11,31,988.05
2020,11,13,11,32,988.05
2020,11,13,11,33,988.05
2020,11,13,11,34,988.05
2020,11,13,11,35,988.05
2020,11,13,11,36,988.05
2020,11,13,11,37,988.05
2020,11,13,11,38,988.05
2020,11,13,11,39,988.05
2020,11,13,11,40,988.05
2020,11,13,11,41,988.05
2020,11,13,11,42,988.05
2020,11,13,11,43,988.05
2020,11,13,11,44,988.05
2020,11,13,11,45,988.54
2020,11,13,11,46,988.59
2020,11,13,11,47,988.59
2020,11,13,11,48,988.59
2020,11,13,11,49,988.59
2020,11,13,11,50,988.59
2020,11,13,11,51,988.59
2020,11,13,11,52,988.59
2020,11,13,11,53,988.59
2020,11,13,11,54,988.59
2020,11,13,11,55,988.59
2020,11,13,11,56,988.59
2020,11,13,11,57,988.59
2020,11,13,11,58,988.59
2020,11,13,11,59,988.59
2020,11,13,12,00,988.75
2020,11,13,12,01,988.76
2020,11,13,12,02,988.76
2020,11,13,12,03,988.76
2020,11,13,12,04,988.76
2020,11,13,12,05,988.76
2020,11,13,12,06,988.76
2020,11,13,12,07,988.76
2020,11,13,12,08,988.76
2020,11,13,12,09,988.76
2020,11,13,12,10,988.76
2020,11,13,12,11,988.76
2020,11,13,12,12,988.76
2020,11,13,12,13,988.76
2020,11,13,12,14,988.76
2020,11,13,12,15,989.21
2020,11,13,12,16,989.23
2020,11,13,12,17,989.23
2020,11,13,12,18,989.23
2020,11,13,12,19,989.23
2020,11,13,12,20,989.23
2020,11,13,12,21,989.23
2020,11,13,12,22,989.23
2020,11,13,12,23,989.23
2020,11,13,12,24,989.23
2020,11,13,12,25,989.23
2020,11,13,12,26,989.23
2020,11,13,12,27,989.23
2020,11,13,12,28,989.23
2020,11,13,12,29,989.23
2020,11,13,12,30,989.69
2020,11,13,12,31,989.74
2020,11,13,12,32,989.74
2020,11,13,12,33,989.74
2020,11,13,12,34,989.74
2020,11,13,12,35,989.74
2020,11,13,12,36,989.74
2020,11,13,12,37,989.74
2020,11,13,12,38,989.74
2020,11,13,12,39,989.74
2020,11,13,12,40,989.74
2020,11,13,12,41,989.74
2020,11,13,12,42,989.74
2020,11,13,12,43,989.74
2020,11,13,12,44,989.74
2020,11,13,12,45,990.16
2020,11,13,12,46,990.18
2020,11,13,12,47,990.18
2020,11,13,12,48,990.18
2020,11,13,12,49,990.18
2020,11,13,12,50,990.18
2020,11,13,12,51,990.18
2020,11,13,12,52,990.18
2020,11,13,12,53,990.18
2020,11,13,12,54,990.18
2020,11,13,12,55,990.18
2020,11,13,12,56,990.18
2020,11,13,12,57,990.18
2020,11,13,12,58,990.18
2020,11,13,12,59,990.18
2020,11,13,13,00,990.36
2020,11,13,13,01,990.38
2020,11,13,13,02,990.38
2020,11,13,13,03,990.38
2020,11,13,13,04,990.38
2020,11,13,13,05,990.38
2020,11,13,13,06,990.38
2020,11,13,13,07,990.38
2020,11,13,13,08,990.38
2020,11,13,13,09,990.38
2020,11,13,13,10,990.38
2020,11,13,13,11,990.38
2020,11,13,13,12,990.38
2020,11,13,13,13,990.38
2020,11,13,13,14,990.38
2020,11,13,13,15,990.78
2020,11,13,13,16,990.82
2020,11,13,13,17,990.82
2020,11,13,13,18,990.82
2020,11,13,13,19,990.82
2020,11,13,13,20,990.82
2020,11,13,13,21,990.82
2020,11,13,13,22,990.82
2020,11,13,13,23,990.82
2020,11,13,13,24,990.82
2020,11,13,13,25,990.82
2020,11,13,13,26,990.82
2020,11,13,13,27,990.82
2020,11,13,13,28,990.82
2020,11,13,13,29,990.82
2020,11,13,13,30,991.22
2020,11,13,13,31,991.23
2020,11,13,13,32,991.23
2020,11,13,13,33,991.23
2020,11,13,13,34,991.23
2020,11,13,13,35,991.23
2020,11,13,13,36,991.23
2020,11,13,13,37,991.23
2020,11,13,13,38,991.23
2020,11,13,13,39,991.23
2020,11,13,13,40,991.23
2020,11,13,13,41,991.23
2020,11,13,13,42,991.23
2020,11,13,13,43,991.23
2020,11,13,13,44,991.23
2020,11,13,13,45,991.84
2020,11,13,13,46,991.87
2020,11,13,13,47,991.87
2020,11,13,13,48,991.87
2020,11,13,13,49,991.87
2020,11,13,13,50,991.87
2020,11,13,13,51,991.87
2020,11,13,13,52,991.87
2020,11,13,13,53,991.87
2020,11,13,13,54,991.87
2020,11,13,13,55,991.87
2020,11,13,13,56,991.87
2020,11,13,13,57,991.87
2020,11,13,13,58,991.87
2020,11,13,13,59,991.87
2020,11,13,14,00,992.24
2020,11,13,14,01,992.28
2020,11,13,14,02,992.28
2020,11,13,14,03,992.28
2020,11,13,14,04,992.28
2020,11,13,14,05,992.28
2020,11,13,14,06,992.28
2020,11,13,14,07,992.28
2020,11,13,14,08,992.28
2020,11,13,14,09,992.28
2020,11,13,14,10,992.28
2020,11,13,14,11,992.28
2020,11,13,14,12,992.28
2020,11,13,14,13,992.28
2020,11,13,14,14,992.28
2020,11,13,14,15,992.50
2020,11,13,14,16,992.52
2020,11,13,14,17,992.52
2020,11,13,14,18,992.52
2020,11,13,14,19,992.52
2020,11,13,14,20,992.52
2020,11,13,14,21,992.52
2020,11,13,14,22,992.52
2020,11,13,14,23,992.52
2020,11,13,14,24,992.52
2020,11,13,14,25,992.52
2020,11,13,14,26,992.52
2020,11,13,14,27,992.52
2020,11,13,14,28,992.52
2020,11,13,14,29,992.52
2020,11,13,14,30,992.92
2020,11,13,14,31,992.96
2020,11,13,14,32,992.96
2020,11,13,14,33,992.96
2020,11,13,14,34,992.96
2020,11,13,14,35,992.96
2020,11,13,14,36,992.96
2020,11,13,14,37,992.96
2020,11,13,14,38,992.96
2020,11,13,14,39,992.96
2020,11,13,14,40,992.96
2020,11,13,14,41,992.96
2020,11,13,14,42,992.96
2020,11,13,14,43,992.96
2020,11,13,14,44,992.96
2020,11,13,14,45,993.38
2020,11,13,14,46,993.40
2020,11,13,14,47,993.40
2020,11,13,14,48,993.40
2020,11,13,14,49,993.40
2020,11,13,14,50,993.40
2020,11,13,14,51,993.40
2020,11,13,14,52,993.40
2020,11,13,14,53,993.40
2020,11,13,14,54,993.40
2020,11,13,14,55,993.40
2020,11,13,14,56,993.40
2020,11,13,14,57,993.40
2020,11,13,14,58,993.40
2020,11,13,14,59,993.40
2020,11,13,15,00,993.78
2020,11,13,15,01,993.80
2020,11,13,15,02,993.80
2020,11,13,15,03,993.80
2020,11,13,15,04,993.80
2020,11,13,15,05,993.80
2020,11,13,15,06,993.80
2020,11,13,15,07,993.80
2020,11,13,15,08,993.80
2020,11,13,15,09,993.80
2020,11,13,15,10,993.80
2020,11,13,15,11,993.80
2020,11,13,15,12,993.80
2020,11,13,15,13,993.80
2020,11,13,15,14,993.80
2020,11,13,15,15,994.03
2020,11,13,15,16,994.04
2020,11,13,15,17,994.04
2020,11,13,15,18,994.04
2020,11,13,15,19,994.04
2020,11,13,15,20,994.04
2020,11,13,15,21,994.04
2020,11,13,15,22,994.04
2020,11,13,15,23,994.04
2020,11,13,15,24,994.04
2020,11,13,15,25,994.04
2020,11,13,15,26,994.04
2020,11,13,15,27,994.04
2020,11,13,15,28,994.04
2020,11,13,15,29,994.04
2020,11,13,15,30,994.52
2020,11,13,15,31,994.58
2020,11,13,15,32,994.58
2020,11,13,15,33,994.58
2020,11,13,15,34,994.58
2020,11,13,15,35,994.58
2020,11,13,15,36,994.58
2020,11,13,15,37,994.58
2020,11,13,15,38,994.58
2020,11,13,15,39,994.58
2020,11,13,15,40,994.58
2020,11,13,15,41,994.58
2020,11,13,15,42,994.58
2020,11,13,15,43,994.58
2020,11,13,15,44,994.58
2020,11,13,15,45,995.07
2020,11,13,15,46,995.09
2020,11,13,15,47,995.09
2020,11,13,15,48,995.09
2020,11,13,15,49,995.09
2020,11,13,15,50,995.09
2020,11,13,15,51,995.09
2020,11,13,15,52,995.09
2020,11,13,15,53,995.09
2020,11,13,15,54,995.09
2020,11,13,15,55,995.09
2020,11,13,15,56,995.09
2020,11,13,15,57,995.09
2020,11,13,15,58,995.09
2020,11,13,15,59,995.09
2020,11,13,16,00,995.31
2020,11,13,16,01,995.33
2020,11,13,16,02,995.33
2020,11,13,16,03,995.33
2020,11,13,16,04,995.33
2020,11,13,16,05,995.33
2020,11,13,16,06,995.33
2020,11,13,16,07,995.33
2020,11,13,16,08,995.33
2020,11,13,16,09,995.33
2020,11,13,16,10,995.33
2020,11,13,16,11,995.33
2020,11,13,16,12,995.33
2020,11,13,16,13,995.33
2020,11,13,16,14,995.33
2020,11,13,16,15,995.61
2020,11,13,16,16,995.63
2020,11,13,16,17,995.63
2020,11,13,16,18,995.63
2020,11,13,16,19,995.63
2020,11,13,16,20,995.63
2020,11,13,16,21,995.63
2020,11,13,16,22,995.63
2020,11,13,16,23,995.63
2020,11,13,16,24,995.63
2020,11,13,16,25,995.63
2020,11,13,16,26,995.63
2020,11,13,16,27,995.63
2020,11,13,16,28,995.63
2020,11,13,16,29,995.63
2020,11,13,16,30,996.09
2020,11,13,16,31,996.14
2020,11,13,16,32,996.14
2020,11,13,16,33,996.14
2020,11,13,16,34,996.14
2020,11,13,16,35,996.14
2020,11,13,16,36,996.14